Location: Newark
(39.3539°N, 74.7750°W)
Time: 07:48:14
(UTC+00:00)

X-37B - Visible Passes

Search period start: 18 September 2020 00:00
Search period end: 28 September 2020 00:00
Orbit: 386 x 387 km, 45.0° (Epoch: 15 September)

Date Brightness Start Highest point End Pass type
(mag) Time Alt. Az. Time Alt. Az. Time Alt. Az.
18 Sep 4.2 08:01:53 11° NE 08:01:53 11° NE 08:02:04 10° ENE visible
18 Sep 2.2 09:34:09 15° NW 09:36:08 28° N 09:38:57 10° ENE visible
19 Sep 2.8 08:38:16 24° NNE 08:38:16 24° NNE 08:40:11 10° ENE visible
19 Sep 1.7 10:11:26 10° WNW 10:14:28 40° NNE 10:17:30 10° E visible
20 Sep 2.1 09:14:42 25° NNW 09:15:46 31° N 09:18:40 10° ENE visible
21 Sep 3.7 08:18:56 16° NE 08:18:56 16° NE 08:19:50 10° ENE visible
21 Sep 1.0 09:51:13 13° WNW 09:54:01 60° NNE 09:57:09 10° ESE visible
22 Sep 1.7 08:55:32 40° NNE 08:55:32 40° NNE 08:58:23 10° E visible
23 Sep 0.5 09:32:16 34° WNW 09:33:30 80° SSW 09:36:40 10° ESE visible
24 Sep 3.1 08:36:50 21° E 08:36:50 21° E 08:38:03 10° ESE visible
24 Sep 2.0 10:09:08 12° W 10:11:20 22° SW 10:13:54 10° SSE visible
25 Sep 1.8 09:13:51 31° SSE 09:13:51 31° SSE 09:15:55 10° SE visible
26 Sep 2.9 09:51:03 12° SSW 09:51:03 12° SSW 09:51:52 10° SSW visible
